Time,TemperatureF,DewpointF,PressureIn,WindDirection,WindDirectionDegrees,WindSpeedMPH,WindSpeedGustMPH,Humidity,HourlyPrecipIn,Conditions,Clouds,dailyrainin,SoftwareType,DateUTC
2013-03-15 00:00:00,31.4,21.0,30.29,ENE,78,3.0,5.0,65,0.00,,,0.00,Wunderground v.1.15,2013-03-15 06:00:00,
2013-03-15 00:09:00,31.8,21.0,30.29,East,82,4.0,6.0,64,0.00,,,0.00,Wunderground v.1.15,2013-03-15 06:09:00,
2013-03-15 00:15:00,31.9,20.7,30.29,East,98,5.0,7.0,63,0.00,,,0.00,Wunderground v.1.15,2013-03-15 06:15:00,
2013-03-15 00:24:00,32.0,20.4,30.29,East,101,5.0,8.0,62,0.00,,,0.00,Wunderground v.1.15,2013-03-15 06:24:00,
2013-03-15 00:29:00,32.0,21.2,30.29,East,87,5.0,5.0,64,0.00,,,0.00,Wunderground v.1.15,2013-03-15 06:29:00,
2013-03-15 00:35:00,31.6,21.2,30.29,East,99,4.0,5.0,65,0.00,,,0.00,Wunderground v.1.15,2013-03-15 06:35:00,
2013-03-15 00:44:00,31.6,21.2,30.29,East,92,4.0,7.0,65,0.00,,,0.00,Wunderground v.1.15,2013-03-15 06:44:00,
2013-03-15 00:54:00,31.8,21.0,30.28,East,84,5.0,5.0,64,0.00,,,0.00,Wunderground v.1.15,2013-03-15 06:54:00,
2013-03-15 01:00:00,31.4,21.3,30.28,East,90,3.0,3.0,66,0.00,,,0.00,Wunderground v.1.15,2013-03-15 07:00:00,
2013-03-15 01:10:00,30.7,21.4,30.28,East,86,1.0,3.0,68,0.00,,,0.00,Wunderground v.1.15,2013-03-15 07:10:00,
2013-03-15 01:15:00,30.6,21.3,30.28,SSE,159,2.0,3.0,68,0.00,,,0.00,Wunderground v.1.15,2013-03-15 07:15:00,
2013-03-15 01:20:00,30.4,21.1,30.28,SE,135,1.0,1.0,68,0.00,,,0.00,Wunderground v.1.15,2013-03-15 07:20:00,
2013-03-15 01:30:00,29.8,21.2,30.28,ESE,111,0.0,0.0,70,0.00,,,0.00,Wunderground v.1.15,2013-03-15 07:30:00,
2013-03-15 01:40:00,29.9,21.3,30.28,East,81,1.0,1.0,70,0.00,,,0.00,Wunderground v.1.15,2013-03-15 07:40:00,
2013-03-15 01:45:00,29.9,21.3,30.28,East,93,1.0,1.0,70,0.00,,,0.00,Wunderground v.1.15,2013-03-15 07:45:00,
2013-03-15 01:50:00,29.8,21.2,30.28,ENE,69,1.0,1.0,70,0.00,,,0.00,Wunderground v.1.15,2013-03-15 07:50:00,
2013-03-15 01:55:00,30.1,21.2,30.28,ESE,111,2.0,2.0,69,0.00,,,0.00,Wunderground v.1.15,2013-03-15 07:55:00,
2013-03-15 02:00:00,29.9,21.3,30.28,East,95,2.0,2.0,70,0.00,,,0.00,Wunderground v.1.15,2013-03-15 08:00:00,
2013-03-15 02:09:00,30.5,21.2,30.27,East,92,4.0,4.0,68,0.00,,,0.00,Wunderground v.1.15,2013-03-15 08:09:00,
2013-03-15 02:14:00,30.3,21.3,30.28,East,81,3.0,4.0,69,0.00,,,0.00,Wunderground v.1.15,2013-03-15 08:14:00,
2013-03-15 02:19:00,29.7,21.1,30.27,ESE,111,1.0,1.0,70,0.00,,,0.00,Wunderground v.1.15,2013-03-15 08:19:00,
2013-03-15 02:24:00,29.7,21.1,30.27,East,96,1.0,2.0,70,0.00,,,0.00,Wunderground v.1.15,2013-03-15 08:24:00,
2013-03-15 02:30:00,29.6,21.3,30.27,East,80,1.0,1.0,71,0.00,,,0.00,Wunderground v.1.15,2013-03-15 08:30:00,
2013-03-15 02:39:00,29.1,20.9,30.26,ESE,111,0.0,1.0,71,0.00,,,0.00,Wunderground v.1.15,2013-03-15 08:39:00,
2013-03-15 02:45:00,29.1,20.9,30.26,ENE,74,0.0,1.0,71,0.00,,,0.00,Wunderground v.1.15,2013-03-15 08:45:00,
2013-03-15 02:50:00,28.9,21.0,30.26,SSW,213,0.0,0.0,72,0.00,,,0.00,Wunderground v.1.15,2013-03-15 08:50:00,
2013-03-15 02:55:00,28.8,20.9,30.25,East,90,0.0,0.0,72,0.00,,,0.00,Wunderground v.1.15,2013-03-15 08:55:00,
2013-03-15 03:00:00,29.0,20.8,30.25,East,101,1.0,2.0,71,0.00,,,0.00,Wunderground v.1.15,2013-03-15 09:00:00,
2013-03-15 03:09:00,28.5,20.9,30.25,SE,132,1.0,1.0,73,0.00,,,0.00,Wunderground v.1.15,2013-03-15 09:09:00,
2013-03-15 03:15:00,28.3,20.7,30.25,SE,132,0.0,1.0,73,0.00,,,0.00,Wunderground v.1.15,2013-03-15 09:15:00,
2013-03-15 03:24:00,28.2,20.7,30.25,East,88,0.0,0.0,73,0.00,,,0.00,Wunderground v.1.15,2013-03-15 09:24:00,
2013-03-15 03:29:00,28.0,20.8,30.25,ENE,73,0.0,0.0,74,0.00,,,0.00,Wunderground v.1.15,2013-03-15 09:29:00,
2013-03-15 03:35:00,27.9,20.7,30.25,ENE,73,0.0,0.0,74,0.00,,,0.00,Wunderground v.1.15,2013-03-15 09:35:00,
2013-03-15 03:40:00,28.0,20.8,30.24,ENE,76,0.0,0.0,74,0.00,,,0.00,Wunderground v.1.15,2013-03-15 09:40:00,
2013-03-15 03:50:00,27.6,20.7,30.24,East,83,0.0,2.0,75,0.00,,,0.00,Wunderground v.1.15,2013-03-15 09:50:00,
2013-03-15 04:00:00,27.5,20.6,30.24,ENE,76,0.0,0.0,75,0.00,,,0.00,Wunderground v.1.15,2013-03-15 10:00:00,
2013-03-15 04:09:00,27.5,20.3,30.24,ESE,116,0.0,0.0,74,0.00,,,0.00,Wunderground v.1.15,2013-03-15 10:09:00,
2013-03-15 04:14:00,27.4,20.5,30.24,SE,130,0.0,0.0,75,0.00,,,0.00,Wunderground v.1.15,2013-03-15 10:14:00,
2013-03-15 04:20:00,27.2,20.3,30.23,SE,140,0.0,0.0,75,0.00,,,0.00,Wunderground v.1.15,2013-03-15 10:20:00,
2013-03-15 04:30:00,26.9,20.0,30.24,SE,146,0.0,2.0,75,0.00,,,0.00,Wunderground v.1.15,2013-03-15 10:30:00,
2013-03-15 04:39:00,26.7,19.8,30.23,SSE,159,0.0,0.0,75,0.00,,,0.00,Wunderground v.1.15,2013-03-15 10:39:00,
2013-03-15 04:45:00,26.5,20.0,30.23,SSE,159,0.0,0.0,76,0.00,,,0.00,Wunderground v.1.15,2013-03-15 10:45:00,
2013-03-15 04:50:00,26.4,19.9,30.23,SSE,159,0.0,0.0,76,0.00,,,0.00,Wunderground v.1.15,2013-03-15 10:50:00,
2013-03-15 04:55:00,26.3,19.8,30.23,SSE,159,0.0,0.0,76,0.00,,,0.00,Wunderground v.1.15,2013-03-15 10:55:00,
2013-03-15 05:00:00,26.4,19.9,30.23,ESE,116,0.0,0.0,76,0.00,,,0.00,Wunderground v.1.15,2013-03-15 11:00:00,
2013-03-15 05:10:00,26.1,19.9,30.23,ESE,117,0.0,0.0,77,0.00,,,0.00,Wunderground v.1.15,2013-03-15 11:10:00,
2013-03-15 05:15:00,26.1,19.9,30.23,ESE,117,0.0,0.0,77,0.00,,,0.00,Wunderground v.1.15,2013-03-15 11:15:00,
2013-03-15 05:24:00,25.9,19.7,30.23,SE,130,0.0,1.0,77,0.00,,,0.00,Wunderground v.1.15,2013-03-15 11:24:00,
2013-03-15 05:29:00,25.9,19.7,30.23,ESE,121,0.0,0.0,77,0.00,,,0.00,Wunderground v.1.15,2013-03-15 11:29:00,
2013-03-15 05:35:00,25.9,19.7,30.23,SE,126,0.0,0.0,77,0.00,,,0.00,Wunderground v.1.15,2013-03-15 11:35:00,
2013-03-15 05:45:00,25.7,19.8,30.23,SE,134,0.0,0.0,78,0.00,,,0.00,Wunderground v.1.15,2013-03-15 11:45:00,
2013-03-15 05:54:00,25.6,19.7,30.23,SSE,147,0.0,1.0,78,0.00,,,0.00,Wunderground v.1.15,2013-03-15 11:54:00,
2013-03-15 06:00:00,25.5,19.6,30.23,SSE,147,0.0,0.0,78,0.00,,,0.00,Wunderground v.1.15,2013-03-15 12:00:00,
2013-03-15 06:09:00,25.4,19.5,30.23,SSE,147,0.0,0.0,78,0.00,,,0.00,Wunderground v.1.15,2013-03-15 12:09:00,
2013-03-15 06:19:00,25.2,19.3,30.23,SSE,157,0.0,0.0,78,0.00,,,0.00,Wunderground v.1.15,2013-03-15 12:19:00,
2013-03-15 06:25:00,25.1,19.5,30.23,SSE,157,0.0,0.0,79,0.00,,,0.00,Wunderground v.1.15,2013-03-15 12:25:00,
2013-03-15 06:30:00,25.0,19.4,30.23,SSE,157,0.0,0.0,79,0.00,,,0.00,Wunderground v.1.15,2013-03-15 12:30:00,
2013-03-15 06:39:00,24.9,19.3,30.24,SSE,157,0.0,0.0,79,0.00,,,0.00,Wunderground v.1.15,2013-03-15 12:39:00,
2013-03-15 06:45:00,24.8,19.2,30.24,SSE,157,0.0,0.0,79,0.00,,,0.00,Wunderground v.1.15,2013-03-15 12:45:00,
2013-03-15 06:54:00,24.7,19.1,30.24,SSE,157,0.0,0.0,79,0.00,,,0.00,Wunderground v.1.15,2013-03-15 12:54:00,
2013-03-15 07:00:00,24.5,19.2,30.25,SSE,157,0.0,0.0,80,0.00,,,0.00,Wunderground v.1.15,2013-03-15 13:00:00,
2013-03-15 07:10:00,24.3,19.0,30.25,SSE,157,0.0,0.0,80,0.00,,,0.00,Wunderground v.1.15,2013-03-15 13:10:00,
2013-03-15 07:15:00,24.4,19.1,30.24,SE,134,0.0,0.0,80,0.00,,,0.00,Wunderground v.1.15,2013-03-15 13:15:00,
2013-03-15 07:20:00,24.3,19.0,30.24,SE,134,0.0,0.0,80,0.00,,,0.00,Wunderground v.1.15,2013-03-15 13:20:00,
2013-03-15 07:30:00,24.2,19.2,30.24,SE,134,0.0,0.0,81,0.00,,,0.00,Wunderground v.1.15,2013-03-15 13:30:00,
2013-03-15 07:40:00,24.2,19.2,30.24,SE,142,0.0,0.0,81,0.00,,,0.00,Wunderground v.1.15,2013-03-15 13:40:00,
2013-03-15 07:45:00,24.2,19.2,30.24,SE,142,0.0,0.0,81,0.00,,,0.00,Wunderground v.1.15,2013-03-15 13:45:00,
2013-03-15 07:50:00,24.2,19.2,30.25,SE,142,0.0,0.0,81,0.00,,,0.00,Wunderground v.1.15,2013-03-15 13:50:00,
2013-03-15 08:00:00,24.2,19.2,30.25,SSE,164,0.0,0.0,81,0.00,,,0.00,Wunderground v.1.15,2013-03-15 14:00:00,
2013-03-15 08:09:00,24.5,19.5,30.25,South,179,0.0,1.0,81,0.00,,,0.00,Wunderground v.1.15,2013-03-15 14:09:00,
2013-03-15 08:15:00,24.6,19.6,30.25,South,172,0.0,1.0,81,0.00,,,0.00,Wunderground v.1.15,2013-03-15 14:15:00,
2013-03-15 08:24:00,24.7,19.7,30.25,SSE,161,0.0,1.0,81,0.00,,,0.00,Wunderground v.1.15,2013-03-15 14:24:00,
2013-03-15 08:29:00,24.8,19.8,30.25,South,173,0.0,0.0,81,0.00,,,0.00,Wunderground v.1.15,2013-03-15 14:29:00,
2013-03-15 08:39:00,25.0,19.7,30.25,SW,217,0.0,1.0,80,0.00,,,0.00,Wunderground v.1.15,2013-03-15 14:39:00,
2013-03-15 08:49:00,25.2,19.9,30.25,South,188,1.0,1.0,80,0.00,,,0.00,Wunderground v.1.15,2013-03-15 14:49:00,
2013-03-15 08:54:00,25.4,20.1,30.25,SSW,210,1.0,2.0,80,0.00,,,0.00,Wunderground v.1.15,2013-03-15 14:54:00,
2013-03-15 09:00:00,25.6,20.0,30.25,SSW,213,2.0,2.0,79,0.00,,,0.00,Wunderground v.1.15,2013-03-15 15:00:00,
2013-03-15 09:10:00,26.0,20.1,30.25,SSW,213,2.0,2.0,78,0.00,,,0.00,Wunderground v.1.15,2013-03-15 15:10:00,
2013-03-15 09:19:00,26.8,20.6,30.25,SSW,196,1.0,2.0,77,0.00,,,0.00,Wunderground v.1.15,2013-03-15 15:19:00,
2013-03-15 09:24:00,27.2,20.9,30.25,SSE,159,2.0,2.0,77,0.00,,,0.00,Wunderground v.1.15,2013-03-15 15:24:00,
2013-03-15 09:29:00,27.6,21.0,30.25,ESE,121,1.0,2.0,76,0.00,,,0.00,Wunderground v.1.15,2013-03-15 15:29:00,
2013-03-15 09:35:00,28.0,21.1,30.25,SW,227,2.0,3.0,75,0.00,,,0.00,Wunderground v.1.15,2013-03-15 15:35:00,
2013-03-15 09:44:00,29.4,22.1,30.24,SSE,167,2.0,2.0,74,0.00,,,0.00,Wunderground v.1.15,2013-03-15 15:44:00,
2013-03-15 09:49:00,31.4,23.1,30.24,SSW,206,1.0,5.0,71,0.00,,,0.00,Wunderground v.1.15,2013-03-15 15:49:00,
2013-03-15 10:00:00,35.6,24.2,30.24,SSE,153,1.0,2.0,63,0.00,,,0.00,Wunderground v.1.15,2013-03-15 16:00:00,
2013-03-15 10:09:00,38.1,24.6,30.23,SSE,152,1.0,1.0,58,0.00,,,0.00,Wunderground v.1.15,2013-03-15 16:09:00,
2013-03-15 10:14:00,39.1,23.8,30.23,SE,142,1.0,1.0,54,0.00,,,0.00,Wunderground v.1.15,2013-03-15 16:14:00,
2013-03-15 10:20:00,41.0,25.2,30.22,East,80,1.0,1.0,53,0.00,,,0.00,Wunderground v.1.15,2013-03-15 16:20:00,
2013-03-15 10:29:00,42.7,25.8,30.21,SSW,195,0.0,0.0,51,0.00,,,0.00,Wunderground v.1.15,2013-03-15 16:29:00,
2013-03-15 10:35:00,43.7,24.2,30.21,SSE,150,0.0,0.0,46,0.00,,,0.00,Wunderground v.1.15,2013-03-15 16:35:00,
2013-03-15 10:40:00,44.5,24.5,30.21,SE,132,0.0,0.0,45,0.00,,,0.00,Wunderground v.1.15,2013-03-15 16:40:00,
2013-03-15 10:45:00,45.1,24.5,30.21,SE,144,0.0,0.0,44,0.00,,,0.00,Wunderground v.1.15,2013-03-15 16:45:00,
2013-03-15 10:50:00,45.9,25.7,30.20,SE,144,1.0,1.0,45,0.00,,,0.00,Wunderground v.1.15,2013-03-15 16:50:00,
2013-03-15 11:00:00,48.2,27.3,30.19,NNW,342,0.0,0.0,44,0.00,,,0.00,Wunderground v.1.15,2013-03-15 17:00:00,
2013-03-15 11:10:00,51.0,25.0,30.19,NW,321,0.0,1.0,36,0.00,,,0.00,Wunderground v.1.15,2013-03-15 17:10:00,
2013-03-15 11:19:00,54.4,16.3,30.18,North,350,2.0,2.0,22,0.00,,,0.00,Wunderground v.1.15,2013-03-15 17:19:00,
2013-03-15 11:25:00,55.1,15.8,30.18,NW,323,3.0,4.0,21,0.00,,,0.00,Wunderground v.1.15,2013-03-15 17:25:00,
2013-03-15 11:30:00,55.9,15.3,30.18,NW,316,3.0,3.0,20,0.00,,,0.00,Wunderground v.1.15,2013-03-15 17:30:00,
2013-03-15 11:40:00,56.9,13.8,30.17,NW,325,3.0,3.0,18,0.00,,,0.00,Wunderground v.1.15,2013-03-15 17:40:00,
2013-03-15 11:45:00,57.3,15.3,30.17,NNW,327,4.0,4.0,19,0.00,,,0.00,Wunderground v.1.15,2013-03-15 17:45:00,
2013-03-15 11:50:00,57.6,14.3,30.17,NNW,329,4.0,4.0,18,0.00,,,0.00,Wunderground v.1.15,2013-03-15 17:50:00,
2013-03-15 12:00:00,58.3,14.9,30.16,North,355,5.0,6.0,18,0.00,,,0.00,Wunderground v.1.15,2013-03-15 18:00:00,
2013-03-15 12:10:00,58.5,16.3,30.16,NW,317,4.0,4.0,19,0.00,,,0.00,Wunderground v.1.15,2013-03-15 18:10:00,
2013-03-15 12:20:00,58.5,15.1,30.16,NW,326,5.0,7.0,18,0.00,,,0.00,Wunderground v.1.15,2013-03-15 18:20:00,
2013-03-15 12:30:00,58.9,15.4,30.16,WSW,246,5.0,7.0,18,0.00,,,0.00,Wunderground v.1.15,2013-03-15 18:30:00,
2013-03-15 12:35:00,59.1,16.8,30.15,North,350,5.0,7.0,19,0.00,,,0.00,Wunderground v.1.15,2013-03-15 18:35:00,
2013-03-15 12:44:00,59.3,13.0,30.15,NNW,336,6.0,13.0,16,0.00,,,0.00,Wunderground v.1.15,2013-03-15 18:44:00,
2013-03-15 12:49:00,59.5,13.2,30.14,NNW,337,6.0,6.0,16,0.00,,,0.00,Wunderground v.1.15,2013-03-15 18:49:00,
2013-03-15 12:54:00,59.9,13.5,30.15,NW,305,5.0,6.0,16,0.00,,,0.00,Wunderground v.1.15,2013-03-15 18:54:00,
2013-03-15 13:00:00,59.7,14.8,30.14,NW,309,5.0,6.0,17,0.00,,,0.00,Wunderground v.1.15,2013-03-15 19:00:00,
2013-03-15 13:10:00,59.9,16.2,30.13,NNW,328,6.0,9.0,18,0.00,,,0.00,Wunderground v.1.15,2013-03-15 19:10:00,
2013-03-15 13:15:00,60.0,15.0,30.13,NW,304,6.0,9.0,17,0.00,,,0.00,Wunderground v.1.15,2013-03-15 19:15:00,
2013-03-15 13:25:00,60.1,15.1,30.13,NW,320,6.0,8.0,17,0.00,,,0.00,Wunderground v.1.15,2013-03-15 19:25:00,
2013-03-15 13:35:00,59.9,16.2,30.11,NNW,335,7.0,8.0,18,0.00,,,0.00,Wunderground v.1.15,2013-03-15 19:35:00,
2013-03-15 13:40:00,60.0,15.0,30.11,NNW,338,8.0,8.0,17,0.00,,,0.00,Wunderground v.1.15,2013-03-15 19:40:00,
2013-03-15 13:45:00,60.1,15.1,30.11,NNW,332,7.0,8.0,17,0.00,,,0.00,Wunderground v.1.15,2013-03-15 19:45:00,
2013-03-15 13:54:00,60.2,15.2,30.10,NNW,341,7.0,9.0,17,0.00,,,0.00,Wunderground v.1.15,2013-03-15 19:54:00,
2013-03-15 14:00:00,60.4,13.9,30.10,NNW,327,7.0,7.0,16,0.00,,,0.00,Wunderground v.1.15,2013-03-15 20:00:00,
2013-03-15 14:10:00,60.1,13.7,30.09,NNW,335,9.0,12.0,16,0.00,,,0.00,Wunderground v.1.15,2013-03-15 20:10:00,
2013-03-15 14:20:00,60.0,15.0,30.09,NNW,333,8.0,8.0,17,0.00,,,0.00,Wunderground v.1.15,2013-03-15 20:20:00,
2013-03-15 14:29:00,59.8,14.8,30.08,NNW,328,7.0,7.0,17,0.00,,,0.00,Wunderground v.1.15,2013-03-15 20:29:00,
2013-03-15 14:39:00,60.2,15.2,30.07,NNW,343,8.0,8.0,17,0.00,,,0.00,Wunderground v.1.15,2013-03-15 20:39:00,
2013-03-15 14:49:00,60.5,14.0,30.07,NNE,13,7.0,7.0,16,0.00,,,0.00,Wunderground v.1.15,2013-03-15 20:49:00,
2013-03-15 15:00:00,60.5,14.0,30.06,North,351,9.0,9.0,16,0.00,,,0.00,Wunderground v.1.15,2013-03-15 21:00:00,
2013-03-15 15:09:00,60.4,16.6,30.05,NW,323,8.0,8.0,18,0.00,,,0.00,Wunderground v.1.15,2013-03-15 21:09:00,
2013-03-15 15:19:00,60.7,16.9,30.05,NNW,329,8.0,11.0,18,0.00,,,0.00,Wunderground v.1.15,2013-03-15 21:19:00,
2013-03-15 15:29:00,60.8,15.6,30.05,NW,322,6.0,11.0,17,0.00,,,0.00,Wunderground v.1.15,2013-03-15 21:29:00,
2013-03-15 15:34:00,60.9,17.0,30.04,NNW,327,6.0,11.0,18,0.00,,,0.00,Wunderground v.1.15,2013-03-15 21:34:00,
2013-03-15 15:39:00,60.9,17.0,30.04,NNE,20,7.0,7.0,18,0.00,,,0.00,Wunderground v.1.15,2013-03-15 21:39:00,
2013-03-15 15:44:00,60.9,17.0,30.04,West,273,7.0,7.0,18,0.00,,,0.00,Wunderground v.1.15,2013-03-15 21:44:00,
2013-03-15 15:54:00,60.8,17.0,30.03,NNW,327,6.0,7.0,18,0.00,,,0.00,Wunderground v.1.15,2013-03-15 21:54:00,
2013-03-15 16:00:00,61.1,17.2,30.03,NNW,332,7.0,9.0,18,0.00,,,0.00,Wunderground v.1.15,2013-03-15 22:00:00,
2013-03-15 16:09:00,60.6,16.8,30.02,NNE,23,6.0,6.0,18,0.00,,,0.00,Wunderground v.1.15,2013-03-15 22:09:00,
2013-03-15 16:14:00,60.5,16.7,30.02,WNW,290,5.0,6.0,18,0.00,,,0.00,Wunderground v.1.15,2013-03-15 22:14:00,
2013-03-15 16:24:00,60.0,17.6,30.02,NW,311,5.0,5.0,19,0.00,,,0.00,Wunderground v.1.15,2013-03-15 22:24:00,
2013-03-15 16:29:00,60.4,17.9,30.02,NW,306,5.0,5.0,19,0.00,,,0.00,Wunderground v.1.15,2013-03-15 22:29:00,
2013-03-15 16:34:00,61.0,17.1,30.03,NNW,337,5.0,11.0,18,0.00,,,0.00,Wunderground v.1.15,2013-03-15 22:34:00,
2013-03-15 16:39:00,61.2,16.0,30.02,NW,321,7.0,7.0,17,0.00,,,0.00,Wunderground v.1.15,2013-03-15 22:39:00,
2013-03-15 16:49:00,60.3,13.9,30.02,NNW,338,9.0,11.0,16,0.00,,,0.00,Wunderground v.1.15,2013-03-15 22:49:00,
2013-03-15 17:00:00,59.4,13.1,30.02,NNW,339,6.0,6.0,16,0.00,,,0.00,Wunderground v.1.15,2013-03-15 23:00:00,
2013-03-15 17:09:00,60.2,10.7,30.01,NNW,336,8.0,8.0,14,0.00,,,0.00,Wunderground v.1.15,2013-03-15 23:09:00,
2013-03-15 17:14:00,60.0,8.9,30.01,NW,321,8.0,9.0,13,0.00,,,0.00,Wunderground v.1.15,2013-03-15 23:14:00,
2013-03-15 17:24:00,60.5,9.3,30.01,NW,318,8.0,11.0,13,0.00,,,0.00,Wunderground v.1.15,2013-03-15 23:24:00,
2013-03-15 17:34:00,60.5,9.3,30.01,NW,312,8.0,9.0,13,0.00,,,0.00,Wunderground v.1.15,2013-03-15 23:34:00,
2013-03-15 17:44:00,60.2,9.1,30.01,NW,318,8.0,11.0,13,0.00,,,0.00,Wunderground v.1.15,2013-03-15 23:44:00,
2013-03-15 17:49:00,59.9,8.8,30.00,NNW,329,8.0,10.0,13,0.00,,,0.00,Wunderground v.1.15,2013-03-15 23:49:00,
2013-03-15 17:54:00,59.6,11.8,30.00,NNW,336,7.0,10.0,15,0.00,,,0.00,Wunderground v.1.15,2013-03-15 23:54:00,
2013-03-15 18:00:00,59.4,10.1,30.00,NW,317,7.0,12.0,14,0.00,,,0.00,Wunderground v.1.15,2013-03-16 00:00:00,
2013-03-15 18:09:00,59.4,8.5,30.00,NW,321,7.0,11.0,13,0.00,,,0.00,Wunderground v.1.15,2013-03-16 00:09:00,
2013-03-15 18:14:00,59.4,10.1,30.00,NW,325,8.0,11.0,14,0.00,,,0.00,Wunderground v.1.15,2013-03-16 00:14:00,
2013-03-15 18:24:00,59.1,8.2,29.99,WNW,303,10.0,14.0,13,0.00,,,0.00,Wunderground v.1.15,2013-03-16 00:24:00,
2013-03-15 18:29:00,59.0,9.8,30.00,NNW,327,10.0,11.0,14,0.00,,,0.00,Wunderground v.1.15,2013-03-16 00:29:00,
2013-03-15 18:39:00,58.4,10.9,29.99,WNW,301,7.0,10.0,15,0.00,,,0.00,Wunderground v.1.15,2013-03-16 00:39:00,
2013-03-15 18:44:00,57.5,8.6,29.99,WNW,295,5.0,10.0,14,0.00,,,0.00,Wunderground v.1.15,2013-03-16 00:44:00,
2013-03-15 18:49:00,57.5,11.6,29.99,WNW,300,4.0,4.0,16,0.00,,,0.00,Wunderground v.1.15,2013-03-16 00:49:00,
2013-03-15 19:00:00,56.8,12.4,29.99,NW,323,5.0,5.0,17,0.00,,,0.00,Wunderground v.1.15,2013-03-16 01:00:00,
2013-03-15 19:09:00,55.8,11.6,29.99,WNW,300,4.0,4.0,17,0.00,,,0.00,Wunderground v.1.15,2013-03-16 01:09:00,
2013-03-15 19:14:00,55.0,15.7,29.99,NW,308,4.0,4.0,21,0.00,,,0.00,Wunderground v.1.15,2013-03-16 01:14:00,
2013-03-15 19:19:00,54.2,13.9,29.99,NW,323,3.0,3.0,20,0.00,,,0.00,Wunderground v.1.15,2013-03-16 01:19:00,
2013-03-15 19:24:00,53.5,15.5,29.99,NW,323,3.0,8.0,22,0.00,,,0.00,Wunderground v.1.15,2013-03-16 01:24:00,
2013-03-15 19:34:00,50.9,17.2,29.99,WNW,302,2.0,3.0,26,0.00,,,0.00,Wunderground v.1.15,2013-03-16 01:34:00,
2013-03-15 19:44:00,48.4,21.3,29.99,WNW,302,0.0,1.0,34,0.00,,,0.00,Wunderground v.1.15,2013-03-16 01:44:00,
2013-03-15 19:49:00,47.0,22.0,29.98,WNW,302,0.0,0.0,37,0.00,,,0.00,Wunderground v.1.15,2013-03-16 01:49:00,
2013-03-15 20:00:00,44.8,22.5,29.98,WNW,302,0.0,0.0,41,0.00,,,0.00,Wunderground v.1.15,2013-03-16 02:00:00,
2013-03-15 20:09:00,42.8,23.4,29.98,WNW,302,0.0,0.0,46,0.00,,,0.00,Wunderground v.1.15,2013-03-16 02:09:00,
2013-03-15 20:14:00,41.6,23.8,29.98,WNW,302,0.0,0.0,49,0.00,,,0.00,Wunderground v.1.15,2013-03-16 02:14:00,
2013-03-15 20:19:00,41.0,24.7,29.98,WNW,302,0.0,0.0,52,0.00,,,0.00,Wunderground v.1.15,2013-03-16 02:19:00,
2013-03-15 20:29:00,39.9,23.7,29.98,WNW,302,0.0,0.0,52,0.00,,,0.00,Wunderground v.1.15,2013-03-16 02:29:00,
2013-03-15 20:34:00,39.4,24.6,29.98,WNW,302,0.0,0.0,55,0.00,,,0.00,Wunderground v.1.15,2013-03-16 02:34:00,
2013-03-15 20:44:00,38.6,25.1,29.98,WNW,302,0.0,0.0,58,0.00,,,0.00,Wunderground v.1.15,2013-03-16 02:44:00,
2013-03-15 20:54:00,38.3,24.0,29.98,WNW,302,0.0,0.0,56,0.00,,,0.00,Wunderground v.1.15,2013-03-16 02:54:00,
2013-03-15 21:00:00,37.9,24.8,29.98,WNW,302,0.0,0.0,59,0.00,,,0.00,Wunderground v.1.15,2013-03-16 03:00:00,
2013-03-15 21:09:00,37.4,25.2,29.98,WNW,302,0.0,0.0,61,0.00,,,0.00,Wunderground v.1.15,2013-03-16 03:09:00,
2013-03-15 21:14:00,37.4,25.2,29.98,WNW,302,0.0,0.0,61,0.00,,,0.00,Wunderground v.1.15,2013-03-16 03:14:00,
2013-03-15 21:19:00,37.2,24.2,29.98,WNW,302,0.0,0.0,59,0.00,,,0.00,Wunderground v.1.15,2013-03-16 03:19:00,
2013-03-15 21:29:00,36.7,24.1,29.98,WNW,302,0.0,0.0,60,0.00,,,0.00,Wunderground v.1.15,2013-03-16 03:29:00,
2013-03-15 21:39:00,36.5,23.9,29.98,WNW,302,0.0,0.0,60,0.00,,,0.00,Wunderground v.1.15,2013-03-16 03:39:00,
2013-03-15 21:44:00,36.4,23.8,29.98,WNW,302,0.0,0.0,60,0.00,,,0.00,Wunderground v.1.15,2013-03-16 03:44:00,
2013-03-15 21:54:00,36.1,23.9,29.97,WNW,302,0.0,0.0,61,0.00,,,0.00,Wunderground v.1.15,2013-03-16 03:54:00,
2013-03-15 22:00:00,36.0,23.4,29.97,WNW,302,0.0,0.0,60,0.00,,,0.00,Wunderground v.1.15,2013-03-16 04:00:00,
2013-03-15 22:04:00,35.9,24.5,29.97,WNW,302,0.0,0.0,63,0.00,,,0.00,Wunderground v.1.15,2013-03-16 04:04:00,
2013-03-15 22:09:00,35.7,24.3,29.97,WNW,302,0.0,0.0,63,0.00,,,0.00,Wunderground v.1.15,2013-03-16 04:09:00,
2013-03-15 22:14:00,35.5,24.9,29.97,WNW,302,0.0,0.0,65,0.00,,,0.00,Wunderground v.1.15,2013-03-16 04:14:00,
2013-03-15 22:19:00,35.3,25.1,29.97,WNW,302,0.0,0.0,66,0.00,,,0.00,Wunderground v.1.15,2013-03-16 04:19:00,
2013-03-15 22:24:00,35.0,24.4,29.97,WNW,302,0.0,0.0,65,0.00,,,0.00,Wunderground v.1.15,2013-03-16 04:24:00,
2013-03-15 22:29:00,34.9,25.0,29.97,WNW,302,0.0,0.0,67,0.00,,,0.00,Wunderground v.1.15,2013-03-16 04:29:00,
2013-03-15 22:34:00,34.7,24.5,29.97,WNW,302,0.0,0.0,66,0.00,,,0.00,Wunderground v.1.15,2013-03-16 04:34:00,
2013-03-15 22:44:00,34.3,25.5,29.97,WNW,302,0.0,0.0,70,0.00,,,0.00,Wunderground v.1.15,2013-03-16 04:44:00,
2013-03-15 22:49:00,34.0,24.9,29.97,WNW,302,0.0,0.0,69,0.00,,,0.00,Wunderground v.1.15,2013-03-16 04:49:00,
2013-03-15 23:00:00,33.3,24.6,29.97,WNW,302,0.0,0.0,70,0.00,,,0.00,Wunderground v.1.15,2013-03-16 05:00:00,
2013-03-15 23:09:00,32.9,24.9,29.96,WNW,302,0.0,0.0,72,0.00,,,0.00,Wunderground v.1.15,2013-03-16 05:09:00,
2013-03-15 23:14:00,32.8,24.4,29.96,WNW,302,0.0,0.0,71,0.00,,,0.00,Wunderground v.1.15,2013-03-16 05:14:00,
2013-03-15 23:19:00,32.4,24.4,29.96,WNW,302,0.0,0.0,72,0.00,,,0.00,Wunderground v.1.15,2013-03-16 05:19:00,
2013-03-15 23:29:00,32.1,24.1,29.96,WNW,302,0.0,0.0,72,0.00,,,0.00,Wunderground v.1.15,2013-03-16 05:29:00,
2013-03-15 23:34:00,32.0,24.3,29.96,WNW,302,0.0,0.0,73,0.00,,,0.00,Wunderground v.1.15,2013-03-16 05:34:00,
2013-03-15 23:39:00,31.6,23.9,29.96,WNW,302,0.0,0.0,73,0.00,,,0.00,Wunderground v.1.15,2013-03-16 05:39:00,
2013-03-15 23:49:00,31.5,23.8,29.96,WNW,302,0.0,0.0,73,0.00,,,0.00,Wunderground v.1.15,2013-03-16 05:49:00,
2013-03-15 23:54:00,31.5,24.5,29.96,WNW,302,0.0,0.0,75,0.00,,,0.00,Wunderground v.1.15,2013-03-16 05:54:00,